CW7409 Weather Reports


time (UTC)temp
C
wind
direction
speed
KPH
gust
KPH
rain 1hr
cm
rain 24hr
cm
rain mn
cm
humidity
%
barometer
mb
20260507090914 6 226 12.9 20.9 0.00 0.00 0.00 85 1012.0
20260507083914 6 233 14.5 24.1 0.00 0.00 0.00 83 1012.3
20260507073914 6 241 14.5 22.5 0.00 0.00 0.00 81 1013.0
20260507070914 7 233 16.1 22.5 0.00 0.00 0.00 79 1013.3
20260507054914 8 229 19.3 27.4 0.00 0.00 0.00 73 1013.9
20260507053915 8 214 16.1 24.1 0.00 0.00 0.00 72 1014.0
20260507050914 8 235 16.1 22.5 0.00 0.00 0.00 68 1014.0
20260507044914 8 226 16.1 22.5 0.00 0.00 0.00 65 1014.2
20260507033914 8 243 12.9 19.3 0.00 0.00 0.00 59 1014.5
20260507031914 8 229 9.7 14.5 0.00 0.00 0.00 55 1014.5
20260507024914 9 243 9.7 14.5 0.00 0.00 0.00 50 1014.5
20260507014914 12 226 3.2 4.8 0.00 0.00 0.00 39 1014.0
20260507013914 12 221 4.8 8.0 0.00 0.00 0.00 37 1014.0
20260507011914 13 235 8.0 9.7 0.00 0.00 0.00 34 1014.0
20260507004915 15 266 11.3 19.3 0.00 0.00 0.00 31 1014.0
20260507001915 15 260 9.7 19.3 0.00 0.00 0.00 30 1014.2
20260507000914 15 325 14.5 20.9 0.00 0.00 0.00 30 1014.1
20260506231914 16 276 16.1 24.1 0.00 0.00 0.00 27 1014.5
20260506230914 16 298 12.9 20.9 0.00 0.00 0.00 28 1014.5
20260506223914 16 324 11.3 27.4 0.00 0.00 0.00 28 1014.8
20260506220916 15 306 16.1 25.7 0.00 0.00 0.00 29 1014.9
20260506203915 15 242 6.4 32.2 0.00 0.00 0.00 30 1016.2
20260506201914 15 285 20.9 32.2 0.00 0.00 0.00 28 1016.3
20260506200916 16 263 16.1 35.4 0.00 0.00 0.00 28 1016.4
20260506194914 15 281 14.5 29.0 0.00 0.00 0.00 30 1016.6
20260506174915 14 17 16.1 27.4 0.00 0.00 0.00 34 1017.6
20260506171914 13 254 16.1 24.1 0.00 0.00 0.00 35 1017.9
20260506170914 12 279 17.7 24.1 0.00 0.00 0.00 35 1018.0
20260506154914 11 323 12.9 19.3 0.00 0.00 0.00 37 1018.2
20260506151914 11 286 8.0 12.9 0.00 0.00 0.00 39 1018.1
20260506144914 10 8 6.4 9.7 0.00 0.00 0.00 41 1017.9
20260506133914 9 352 4.8 9.7 0.00 0.00 0.00 46 1017.7
20260506124914 6 347 8.0 11.3 0.00 0.00 0.00 60 1017.1
20260506121914 5 337 4.8 9.7 0.00 0.00 0.00 66 1016.6
20260506114914 5 339 4.8 4.8 0.00 0.00 0.00 66 1016.1
20260506113915 5 327 3.2 4.8 0.00 0.00 0.00 66 1015.9
20260506111915 5 323 1.6 4.8 0.00 0.00 0.00 66 1015.8
20260506104915 6 314 3.2 4.8 0.00 0.00 0.00 63 1015.7
20260506103915 6 321 3.2 4.8 0.00 0.00 0.00 63 1015.7